This demonstration page uses our WeatherBlox Daily Observations layout. Learn more.

Left ArrowRight Arrow

39.01783, -85.05884

Hourly Observations for September 7, 2021

Temp ( °F °C ) Dew Point ( °F °C ) Humidity (%) Winds ( mph kmh ) Pressure ( in mb ) Visibility ( mi km ) Precip ( " mm )
12:52 am 00:52 Mostly Cloudy 69 20.6 58 14.4 68 68 SSW 7 11 29.96 1014 10 16 0.00 0.00
1:52 am 01:52 Cloudy 69 20.6 58 14.4 68 68 SW 8 13 29.95 1014 10 16 0.00 0.00
2:52 am 02:52 Mostly Cloudy 69 20.6 57 13.9 66 66 SW 7 11 29.94 1014 10 16 0.00 0.00
3:52 am 03:52 Mostly Cloudy 67 19.4 56 13.3 68 68 SW 7 11 29.95 1014 10 16 0.00 0.00
4:52 am 04:52 Mostly Cloudy 65 18.3 56 13.3 73 73 SSW 7 11 29.96 1014 10 16 0.00 0.00
5:52 am 05:52 Mostly Clear 64 17.8 56 13.3 75 75 SSW 7 11 29.96 1014 10 16 0.00 0.00
6:52 am 06:52 Mostly Clear 64 17.8 56 13.3 75 75 SSW 5 7 29.97 1015 10 16 0.00 0.00
7:52 am 07:52 Mostly Sunny 64 17.8 56 13.3 75 75 SSW 3 6 29.98 1015 10 16 0.00 0.00
8:52 am 08:52 Sunny 69 20.6 57 13.9 66 66 SW 8 13 29.98 1015 10 16 0.00 0.00
9:52 am 09:52 Sunny 73 22.8 59 15 62 62 SW 10 17 29.98 1015 10 16 0.00 0.00
11:52 am 11:52 Sunny 79 26.1 61 16.1 54 54 SSW 8 13 29.96 1015 10 16 0.00 0.00
12:52 pm 12:52 Mostly Sunny 81 27.2 59 15 47 47 WSW 12 19 29.95 1014 10 16 0.00 0.00
1:52 pm 13:52 Mostly Sunny 82 27.8 59 15 46 46 SSW 12 19 29.92 1013 10 16 0.00 0.00
2:52 pm 14:52 Mostly Sunny 83 28.3 58 14.4 43 43 SW 9 15 29.90 1013 10 16 0.00 0.00
3:52 pm 15:52 Mostly Sunny 83 28.3 58 14.4 43 43 SSW 13 20 29.86 1011 10 16 0.00 0.00
4:52 pm 16:52 Mostly Sunny 82 27.8 58 14.4 44 44 SSW 9 15 29.84 1011 10 16 0.00 0.00
5:52 pm 17:52 Mostly Sunny 81 27.2 56 13.3 42 42 SSW 15 24 29.83 1010 10 16 0.00 0.00
6:52 pm 18:52 Partly Cloudy 79 26.1 55 12.8 44 44 SSW 10 17 29.83 1010 10 16 0.00 0.00
7:52 pm 19:52 Mostly Cloudy 75 23.9 56 13.3 52 52 SSW 5 7 29.83 1010 10 16 0.00 0.00
8:52 pm 20:52 Mostly Cloudy 72 22.2 57 13.9 59 59 S 7 11 29.84 1010 10 16 0.00 0.00
9:52 pm 21:52 Cloudy 71 21.7 58 14.4 63 63 S 9 15 29.83 1010 10 16 0.00 0.00
10:52 pm 22:52 Cloudy 71 21.7 57 13.9 61 61 SSW 9 15 29.81 1010 10 16 0.00 0.00
11:52 pm 23:52 Cloudy 70 21.1 57 13.9 64 64 SW 8 13 29.82 1010 10 16 0.00 0.00

Powered by AerisWeather